Location: Platte
(43.3870°N, 98.8440°W)
Time: 10:10:38
(UTC-05:00)

Daily predictions for brighter satellites

Satellite Brightness Start Highest point End
(mag) Time Altitude Azimuth Time Altitude Azimuth Time Altitude Azimuth
In-Cosmos 22 4.4 19:38:27 10° N 19:44:08 53° ENE 19:49:42 10° SSE
NOSS 3-2 (C) 3.5 19:38:23 10° SSW 19:44:27 77° ESE 19:51:06 10° NE
ATLAS CENTAUR R/B 4.2 19:42:48 10° WNW 19:45:42 19° WSW 19:48:26 10° SSW
Cosmos 1674 4.3 19:44:25 10° NNE 19:47:03 17° ENE 19:49:40 10° ESE
Cosmos 1470 4.4 19:45:58 10° ESE 19:48:00 14° E 19:50:02 10° NE
Cosmos 1076 Rocket 3.5 19:45:46 10° N 19:50:06 66° E 19:54:25 10° SSE
Abrixas 3.0 19:50:21 10° SW 19:53:11 42° SSE 19:56:04 10° ENE
Cosmos 2333 Rocket 4.3 19:49:07 10° WSW 19:54:05 29° NW 19:59:04 10° N
Spot 2 Rocket 4.0 19:50:20 10° SE 19:54:59 39° ENE 19:59:38 10° N
Cosmos 1072 Rocket 4.4 19:49:16 10° S 19:55:20 77° E 20:01:28 10° N
Cosmos 1766 Rocket 3.5 19:51:20 10° N 19:55:41 62° E 19:59:57 10° SSE
ATLAS 5 CENTAUR R/B 1.9 19:55:46 10° SW 20:00:33 87° NW 20:05:48 10° NE
Cosmos-2242 3.3 19:56:53 10° SSE 20:01:04 46° E 20:05:17 10° NNE
Cosmos 1269 Rocket 4.4 19:58:47 10° S 20:03:43 42° ESE 20:08:41 10° NNE
SJ-6B 2.8 20:00:22 10° SSE 20:04:22 75° ENE 20:08:28 10° N
HJ-1C 4.0 20:01:54 10° SE 20:05:00 36° ENE 20:08:09 10° N
Cosmos 1346 3.5 20:02:28 10° N 20:05:17 38° ENE 20:08:05 10° SSE
FREGAT/IRIS 2.7 20:03:13 10° SSE 20:06:15 58° ENE 20:09:18 10° N
Cosmos 1544 3.5 20:05:36 10° SSE 20:09:07 41° E 20:12:40 10° NNE
Cosmos 2237 Rocket 4.4 20:04:48 10° WSW 20:09:30 26° NW 20:14:14 10° N
Cosmos 1484 Rocket 4.0 20:07:18 10° S 20:11:01 46° W 20:14:49 10° NNW
SAR-Lupe-4 3.9 20:08:46 10° S 20:12:19 71° WSW 20:15:54 10° NNW
FengYun 1-2 T 4.5 20:09:57 10° SE 20:15:11 48° ENE 20:20:26 10° N
USA 215 3.8 20:10:59 10° ENE 20:17:00 38° SE 20:22:58 10° SSW
METEOR-M 4.1 20:14:23 10° SSE 20:19:43 74° ENE 20:25:04 10° N
Cosmos 1758 3.3 20:16:24 10° S 20:20:30 89° E 20:24:37 10° N
Cosmos 724 4.4 20:15:42 10° SSW 20:21:39 89° WNW 20:27:48 10° NNE
CZ-4B DEB 3.8 20:22:26 22° ESE 20:23:33 28° ENE 20:26:23 10° N
Cosmos 1408 Rocket 4.2 20:22:10 10° NNW 20:26:26 57° W 20:30:39 10° S
Cosmos 1500 Rocket 3.8 20:23:24 10° N 20:27:43 48° ENE 20:32:02 10° SSE
Cosmos 1842 Rocket 3.8 20:25:48 10° SSE 20:29:55 45° E 20:34:06 10° NNE
Cosmos 1464 Rocket 4.5 20:24:15 10° SSW 20:30:25 64° W 20:36:34 10° N
Cosmos 2034 Rocket 4.1 20:24:19 10° S 20:30:37 85° W 20:37:01 10° N
SL-16 R/B 3.8 20:26:32 10° WSW 20:31:45 36° NW 20:37:01 10° N
TELKOM 3 3.1 20:30:01 10° WNW 20:32:50 69° SSW 20:33:26 42° SE
ERS-1 Rocket 4.4 20:35:50 18° ENE 20:36:14 18° ENE 20:39:37 10° NNE
Meteor 1-21 Rocket 4.4 20:31:54 10° NNW 20:37:28 76° W 20:42:58 10° S
Helios 1A 2.9 20:33:21 10° SSE 20:37:33 84° ENE 20:41:48 10° NNW
FENGYUN 3A 3.7 20:33:10 10° SSE 20:38:25 55° ENE 20:43:41 10° N
Spot 1 4.4 20:34:10 10° S 20:38:49 72° WSW 20:43:13 10° NNW
Cosmos 1328 4.4 20:38:17 10° N 20:41:57 35° ENE 20:42:31 33° E
Meteor 1-28 Rocket 4.3 20:38:34 10° N 20:42:09 46° WNW 20:45:43 10° SSW
Meteor 1-29 2.8 20:39:13 10° NNE 20:42:44 71° ESE 20:46:12 10° S
CZ-2D R/B 3.6 20:41:51 30° SE 20:43:19 45° ENE 20:47:03 10° N
Cosmos 1110 Rocket 4.4 20:43:23 10° N 20:48:26 42° ENE 20:50:19 31° ESE
GPS 2-04 Rocket1 3.9 20:46:37 10° SW 20:49:24 22° S 20:49:38 22° SSE
H-2A R/B 2.8 20:52:22 38° SE 20:53:36 58° ENE 20:57:24 10° N
ASTEX 1 3.2 20:51:44 10° N 20:56:40 74° E 21:01:32 10° S
Cosmos 1743 Rocket 4.2 20:52:57 10° NNW 20:57:18 56° W 21:01:36 10° S
Resurs 1-3 3.9 20:54:37 10° S 20:58:58 66° W 21:03:21 10° NNW
Cosmos 1943 Rocket 2.6 20:56:18 10° NNW 21:01:36 40° ENE 21:02:43 36° E
Elektron 1 3.7 20:59:30 10° SW 21:02:22 86° SE 21:02:39 71° NE
ALOS 2.2 20:58:47 13° SSE 21:02:59 86° WSW 21:07:41 10° NNW
Helios 1B rocket 3.2 21:01:17 10° N 21:05:18 53° WNW 21:09:19 10° SSW
Resurs 01 Rocket 2.9 21:03:07 10° S 21:07:19 41° W 21:11:33 10° NNW
Cosmos 2251 Rocket 3.6 21:02:45 10° S 21:07:44 47° ESE 21:12:46 10° NNE
Cosmos 2369 Rocket 2.2 21:03:49 10° NNW 21:09:30 83° WSW 21:12:52 26° SSE
ISS -2.9 21:07:15 10° WSW 21:10:27 57° NNW 21:10:27 57° NNW
SL-8 R/B 3.8 21:05:57 10° WSW 21:10:45 74° NNW 21:12:17 42° NE
Cosmos 1943 3.1 21:06:15 10° SSW 21:11:53 88° ESE 21:17:33 10° NNE
Cosmos 1733 3.6 21:12:19 10° SSW 21:16:10 62° W 21:20:00 10° N
Cosmos 839 Rocket 4.2 21:08:58 10° NNW 21:16:41 85° WSW 21:20:01 32° SSE
Gbstr 26 Del rocket 3.2 21:12:57 10° SW 21:17:30 86° SSE 21:19:04 46° ENE
ERBS 3.6 21:15:28 10° NW 21:17:57 35° N 21:17:57 35° N
Cosmos 1331 Rocket 3.9 21:14:22 10° NNW 21:19:40 68° ENE 21:20:31 57° ESE
CENTAUR R/B 2.5 21:13:55 10° SW 21:20:00 86° NW 21:26:57 10° NE
Cosmos 2263 4.1 21:15:40 10° NNW 21:21:29 90° ENE 21:23:31 43° SSE
Cosmos 1674 4.4 21:19:16 10° NNW 21:22:49 34° W 21:26:19 10° SSW
Cosmos 1470 4.0 21:20:03 10° SSW 21:23:44 41° WNW 21:27:25 10° N
Cosmos 2058 3.4 21:24:54 10° N 21:28:02 51° N 21:28:02 51° N
GP-B 3.2 21:24:44 10° N 21:29:11 74° W 21:30:26 46° SSW
Cosmos 1302 Rocket 4.3 21:28:15 10° NNW 21:32:41 49° NE 21:32:41 49° NE
Cosmos 2279 Rocket 3.8 21:32:29 41° SSE 21:34:41 70° E 21:40:53 10° NNE
H-2A R/B 4.3 21:40:19 17° NNE 21:40:19 17° NNE 21:41:32 10° N
Cosmos 2151 3.6 21:33:35 10° NNW 21:37:42 53° W 21:38:15 49° WSW
Cosmos 1805 Rocket 4.3 21:35:11 10° N 21:38:18 45° N 21:38:18 45° N
Cosmos 2221 4.2 21:46:32 26° N 21:46:32 26° N 21:48:29 10° N
Envisat 3.5 21:45:50 48° NNE 21:45:50 48° NNE 21:49:40 10° N
SL-24 R/B - RUBIN 2 4.5 21:39:23 10° NW 21:46:04 76° WSW 21:47:14 60° S
ATLAS 5 CENTAUR R/B 4.4 21:42:30 10° WNW 21:46:06 19° NNW 21:49:55 10° NNE
UNK 4.4 21:27:05 10° WNW 21:47:06 69° N 21:48:33 54° ENE
Meteor 2-1 Rocket 4.2 21:50:45 55° SSW 21:52:08 84° W 21:58:05 10° N
Cosmos 1655 Rocket 4.1 21:46:53 10° NNW 21:53:04 71° W 21:55:08 43° SSW
Cosmos 2026 Rocket 4.3 21:47:16 10° NNW 21:53:17 63° W 21:55:57 34° SSW
Cosmos 1428 Rocket 4.4 21:49:02 10° N 21:55:21 89° ENE 21:55:49 78° SSE
USA 215 3.4 21:56:44 29° NE 22:00:14 68° NW 22:06:42 10° WSW
Cosmos 1656 Rocket 4.5 21:58:24 10° NNW 22:02:06 41° N 22:02:06 41° N
H-2A R/B 4.5 22:10:39 11° NNE 22:10:39 11° NNE 22:10:57 10° NNE
ERS-1 Rocket 3.9 22:15:51 45° NW 22:15:51 45° NW 22:19:31 10° NNW
Cosmos 1943 Rocket 3.8 22:40:20 10° NW 22:44:17 29° W 22:44:17 29° W
